VE3BAY Weather Reports


Display with metric or nautical units.
time (UTC)temp
F
wind
direction
speed
MPH
gust
MPH
rain 1hr
in
rain 24hr
in
rain mn
in
humidity
%
barometer
mb
20191207214616 33 0 0.0 0.0 53.00 0.00 0.00 84 1022.4
20191207213117 33 0 0.0 0.0 53.00 0.00 0.00 83 1022.4
20191207211616 34 0 0.0 0.0 53.00 0.00 0.00 83 1022.4
20191207204616 34 0 0.0 0.0 53.00 0.00 0.00 82 1022.3
20191207203116 34 0 0.0 0.0 53.00 0.00 0.00 82 1022.2
20191207200116 34 0 0.0 0.0 53.00 0.00 0.00 81 1022.1
20191207193117 33 0 0.0 0.0 53.00 0.00 0.00 83 1022.3
20191207191617 33 0 0.0 0.0 53.00 0.00 0.00 82 1022.4
20191207184616 33 0 0.0 0.0 53.00 0.00 0.00 80 1022.4
20191207183116 33 0 0.0 0.0 53.00 0.00 0.00 79 1022.6
20191207180117 32 0 0.0 0.0 53.00 0.00 0.00 79 1022.9
20191207174617 33 0 0.0 0.0 53.00 0.00 0.00 78 1023.2
20191207173116 33 0 0.0 0.0 53.00 0.00 0.00 80 1023.3
20191207171616 33 0 0.0 0.0 53.00 0.00 0.00 80 1023.5
20191207170116 32 0 0.0 0.0 53.00 0.00 0.00 81 1023.6
20191207164616 32 0 0.0 0.0 53.00 0.00 0.00 81 1023.7
20191207163116 32 0 0.0 0.0 53.00 0.00 0.00 82 1023.7
20191207161616 32 0 0.0 0.0 53.00 0.00 0.00 82 1023.7
20191207160116 31 0 0.0 0.0 53.00 0.00 0.00 83 1023.7
20191207154617 30 0 0.0 0.0 53.00 0.00 0.00 84 1023.8
20191207153117 30 0 0.0 0.0 53.00 0.00 0.00 84 1023.9
20191207151616 30 0 0.0 0.0 53.00 0.00 0.00 85 1023.9
20191207150117 30 0 0.0 0.0 53.00 0.00 0.00 86 1023.7
20191207143117 29 0 0.0 0.0 53.00 0.00 0.00 87 1023.3
20191207141617 29 0 0.0 0.0 53.00 0.00 0.00 87 1023.1
20191207140117 28 0 0.0 0.0 53.00 0.00 0.00 87 1022.9
20191207134617 28 0 0.0 0.0 53.00 0.00 0.00 87 1022.9
20191207133117 28 0 0.0 0.0 53.00 0.00 0.00 87 1022.7
20191207131617 28 0 0.0 0.0 53.00 0.00 0.00 87 1022.6
20191207130117 28 0 0.0 0.0 53.00 0.00 0.00 87 1022.6
20191207124617 28 0 0.0 0.0 53.00 0.00 0.00 87 1022.3
20191207123117 28 0 0.0 0.0 53.00 0.00 0.00 87 1022.2
20191207121617 28 0 0.0 0.0 53.00 0.00 0.00 86 1022.1
20191207120117 28 0 0.0 0.0 53.00 0.00 0.00 86 1021.8
20191207114617 28 0 0.0 0.0 53.00 0.00 0.00 85 1021.5
20191207113117 28 0 0.0 0.0 53.00 0.00 0.00 85 1021.2
20191207111617 28 0 0.0 0.0 53.00 0.00 0.00 85 1021.2
20191207110117 28 0 0.0 0.0 53.00 0.00 0.00 84 1021.1
20191207104618 29 0 0.0 0.0 53.00 0.00 0.00 84 1020.9
20191207103117 29 0 0.0 0.0 53.00 0.00 0.00 84 1020.9
20191207101617 29 0 0.0 0.0 53.00 0.00 0.00 84 1021.0
20191207100117 29 0 0.0 0.0 53.00 0.00 0.00 83 1020.8
20191207094617 30 0 0.0 0.0 53.00 0.00 0.00 83 1020.7
20191207093117 30 0 0.0 0.0 53.00 0.00 0.00 81 1020.5
20191207091617 30 0 0.0 0.0 53.00 0.00 0.00 81 1020.5
20191207090117 31 0 0.0 0.0 53.00 0.00 0.00 80 1020.4
20191207084617 31 0 0.0 0.0 53.00 0.00 0.00 81 1020.3
20191207083117 31 0 0.0 0.0 53.00 0.00 0.00 81 1020.3
20191207081617 31 0 0.0 0.0 53.00 0.00 0.00 82 1020.3
20191207080117 31 0 0.0 0.0 53.00 0.00 0.00 81 1020.0
20191207074617 31 0 0.0 0.0 53.00 0.00 0.00 81 1019.9
20191207073117 32 0 0.0 0.0 53.00 0.00 0.00 82 1019.7
20191207071617 32 0 0.0 0.0 53.00 0.00 0.00 82 1019.6
20191207070117 32 0 0.0 0.0 53.00 0.00 0.00 82 1019.4
20191207064617 32 0 0.0 0.0 53.00 0.00 0.00 82 1019.3
20191207063117 32 0 0.0 0.0 53.00 0.00 0.00 83 1019.1
20191207060117 32 0 0.0 0.0 53.00 0.00 0.00 85 1019.0
20191207054617 32 0 0.0 0.0 53.00 0.00 0.00 86 1018.8
20191207053117 31 0 0.0 0.0 53.00 0.00 0.00 88 1018.9
20191207051618 31 0 0.0 0.0 53.00 0.00 0.00 88 1018.7
20191207050118 31 0 0.0 0.0 53.00 0.00 0.00 88 1018.7
20191207044618 32 0 0.0 0.0 53.00 0.00 0.00 87 1018.7
20191207043118 32 0 0.0 0.0 53.00 0.00 0.00 87 1018.6
20191207041618 32 0 0.0 0.0 53.00 0.00 0.00 87 1018.4
20191207040118 33 0 0.0 0.0 53.00 0.00 0.00 87 1018.4
20191207034618 33 0 0.0 0.0 53.00 0.00 0.00 87 1018.3
20191207033118 33 0 0.0 0.0 53.00 0.00 0.00 87 1018.0
20191207031618 33 0 0.0 0.0 53.00 0.00 0.00 86 1017.7
20191207030118 33 0 0.0 0.0 53.00 0.00 0.00 86 1017.6
20191207024618 33 0 0.0 0.0 53.00 0.00 0.00 87 1017.5
20191207023118 33 0 0.0 0.0 53.00 0.00 0.00 87 1017.3
20191207021618 33 0 0.0 0.0 53.00 0.00 0.00 87 1017.2
20191207020118 33 0 0.0 0.0 53.00 0.00 0.00 88 1017.2
20191207014618 33 0 0.0 0.0 53.00 0.00 0.00 89 1017.0
20191207013119 33 0 0.0 0.0 53.00 0.00 0.00 94 1016.9
20191207011618 32 0 0.0 0.0 53.00 0.00 0.00 95 1016.8
20191207010118 32 0 0.0 0.0 53.00 0.00 0.00 95 1016.8
20191207004618 32 0 0.0 0.0 53.00 0.00 0.00 95 1016.6
20191207003118 32 0 0.0 0.0 53.00 0.00 0.00 94 1016.5
20191207001618 33 0 0.0 0.0 53.00 0.00 0.00 94 1016.3
20191207000118 33 0 0.0 0.0 53.00 0.00 0.00 93 1016.2
20191206234618 33 0 0.0 0.0 53.00 0.00 0.00 91 1016.1
20191206233118 33 0 0.0 0.0 53.00 0.00 0.00 89 1016.0
20191206231618 34 0 0.0 0.0 53.00 0.00 0.00 88 1015.8
20191206230119 33 0 0.0 0.0 53.00 0.00 0.00 86 1015.5
20191206224618 33 0 0.0 0.0 53.00 0.00 0.00 87 1015.3
20191206220118 33 0 0.0 0.0 53.00 0.00 0.00 86 1014.4